ATLAS 5 CENTAUR DEB, 52971

Orbit data source: Space-Track

ATLAS 5 CENTAUR DEB, 52971 is space debris in HEO originally from a launch on Wed, 17 Oct 2018 UTC launched from the Air Force Eastern Test Range (AFETR). Debris objects in space refer to the collection of defunct objects orbiting the Earth. Examples of debris include non-operational satellites, rocket bodies, and fragments generated from explosions, collisions, or faulty payload assembly.

Loading next visibility...
Identifier
52971, 2018-079GV
Orbit
HEO
Country
Flag of USUS
Related business
Flag of USUnited Launch Alliance/Lockheed Martin (US)
Manufacturer
ULA Decatur
Mission
Spacecraft
Bus & Motor
Unknown
Mass
Unknown
Launch date (UTC)
2018-10-17 (8 years ago)
Launch vehicle
Unknown
Launch site
Air Force Eastern Test Range (AFETR)
Object type
Payload
Rocket body
Debris
Shape & HBR
Unknown shape, 1.1 m
Radar Cross Section
RCS unknown

Expand to show TLE details & history
Last TLE update: 6 days ago

TLE from 6 days ago
0 ATLAS 5 CENTAUR DEB
1 52971U 18079GV  26167.14582811 -.00000110  00000-0  00000+0 0  9993
2 52971  13.0779  37.2527 4769154 320.4795  12.9950  1.82286966 30844
Epoch: 2026-06-16T03:29Z
TLE epoch observation values (Epoch: 2026-06-16T03:29:59.548Z)
Latitude
0.00007°
Longitude
80.2917°
Altitude
9,644.238 km
Speed
5.973 km/s
True Right ascension
02h 28m 50s
True Declination
0° 00' 00"
Sunlit
Object was in daylight at epoch
Visualization orbit readout
Latitude
Unknown
Longitude
Unknown
Altitude
Unknown
Speed
Unknown
Apparent Right ascension
Unknown
Apparent Declination
Unknown
Sunlit
N/A
Visualization observer readout
Local Sidereal Time
00:50:04
Azimuth
Unknown
Elevation
Unknown
Doppler factor
Unknown
Orbital elements
Apogee altitude
35,432.466 km
Perigee altitude
8,430.079 km
Semi-major axis
28,309.41 km
Eccentricity
0.47692
Inclination
13.0779°
RAAN
37.2527°
Arg. of periapsis
320.4795°
True anomaly
39.61067°
Mean anomaly
12.995°
Eccentric anomaly
24.19335°
Mean motion
0.45567 °/min
Orbital period
790.05 mins
BSTAR
0
Loading maneuver chart data...
Computing Atmospheric mass density...

Documentation

Showing up to 5 results
|